Weather History for KTIF - May, 2013

Change the Weather History Date:

Thursday, May 23, 2013

  Actual Average (KLBF) Record (KLBF)
Temperature  
Mean Temperature 58 °F 60 °F  
Max Temperature 70 °F 74 °F 98 °F (1926)
Min Temperature 45 °F 47 °F 30 °F (2001)
Degree Days  
Heating Degree Days 8 6  
Month to date heating degree days 205  
Since 1 July heating degree days 6595  
Cooling Degree Days 0 1  
Month to date cooling degree days 13  
Year to date cooling degree days 16  
Growing Degree Days 8 (Base 50)    
Moisture  
Dew Point 43 °F    
Average Humidity 61    
Maximum Humidity 92    
Minimum Humidity 32    
Precipitation  
Precipitation 0.00 in 0.11 in 1.15 in (1885)
Month to date precipitation 2.31  
Year to date precipitation 6.47  
Snow  
Snow 0.00 in 0.00 in 0.00 in ()
Month to date snowfall 0.0  
Since 1 July snowfall 28.5  
Snow Depth -    
Sea Level Pressure  
Sea Level Pressure 30.17 in    
Wind  
Wind Speed 11 mph (East)    
Max Wind Speed 25 mph    
Max Gust Speed 33 mph    
Visibility 10 miles    
Events      
T = Trace of Precipitation, MM = Missing Value Source: NWS Daily Summary

Daily Weather History Graph

Daily Weather History Graph

Search for Another Location

Airport or City:

Trip Planner

Search our weather history database for the weather conditions in past years. The results will help you decide how hot, cold, wet, or windy it might be!

Date:

Astronomy

May. 23, 2013 Rise Set
Actual Time 6:14 AM CDT 9:03 PM CDT
Civil Twilight 5:41 AM CDT 9:36 PM CDT
Nautical Twilight 5:00 AM CDT 10:18 PM CDT
Astronomical Twilight 4:12 AM CDT 11:06 PM CDT
Moon 7:37 PM CDT (5/23) 5:02 AM CDT (5/23)
Length of Visible Light 15h 54m
Length of Day
14h 49m
Waxing Gibbous, 97% of the Moon is Illuminated
May 23
Waxing Gibbous
May 24
Full
May 31
Last Quarter
Jun 8
New
Jun 16
First Quarter

Hourly Weather History & Observations

Time (CDT) Temp. Windchill Dew Point Humidity Pressure Visibility Wind Dir Wind Speed Gust Speed Precip Events Conditions
12:15 AM 49.6 °F - 46.4 °F 89% 30.13 in 10.0 mi NNE 10.4 mph - N/A   Overcast
12:35 AM 50.0 °F - 44.8 °F 82% 30.14 in 10.0 mi NNE 8.1 mph - N/A   Overcast
12:55 AM 49.6 °F - 45.0 °F 84% 30.15 in 10.0 mi NNE 8.1 mph - N/A   Overcast
1:15 AM 49.8 °F - 45.0 °F 83% 30.15 in 10.0 mi NNE 3.5 mph - N/A   Overcast
1:35 AM 50.0 °F - 45.0 °F 83% 30.15 in 10.0 mi NNW 3.5 mph - N/A   Overcast
1:55 AM 50.0 °F - 45.1 °F 83% 30.15 in 10.0 mi North 4.6 mph - N/A   Overcast
2:15 AM 50.0 °F - 45.5 °F 85% 30.15 in 10.0 mi North 4.6 mph - N/A   Overcast
2:35 AM 50.0 °F - 46.0 °F 86% 30.15 in 10.0 mi North 3.5 mph - N/A   Overcast
2:55 AM 50.0 °F - 46.2 °F 87% 30.15 in 10.0 mi NNE 9.2 mph - N/A   Overcast
3:15 AM 50.0 °F - 46.4 °F 87% 30.14 in 10.0 mi NNE 6.9 mph - N/A   Overcast
3:35 AM 50.0 °F - 46.4 °F 87% 30.14 in 10.0 mi NNE 8.1 mph - N/A   Overcast
3:55 AM 49.1 °F - 45.7 °F 88% 30.15 in 10.0 mi North 3.5 mph - N/A   Scattered Clouds
4:15 AM 47.8 °F - 45.0 °F 90% 30.16 in 10.0 mi North 3.5 mph - N/A   Clear
4:35 AM 46.8 °F - 43.9 °F 90% 30.18 in 10.0 mi WNW 3.5 mph - N/A   Clear
4:55 AM 45.9 °F 44.6 °F 43.7 °F 92% 30.17 in 10.0 mi North 3.5 mph - N/A   Clear
5:15 AM 46.2 °F 41.2 °F 43.7 °F 91% 30.16 in 10.0 mi NNE 10.4 mph - N/A   Clear
5:35 AM 46.6 °F - 44.1 °F 91% 30.14 in 10.0 mi NE 11.5 mph - N/A   Clear
5:55 AM 46.4 °F 42.4 °F 43.3 °F 89% 30.16 in 10.0 mi NE 8.1 mph - N/A   Clear
6:15 AM 45.9 °F 43.6 °F 42.8 °F 89% 30.17 in 10.0 mi ENE 4.6 mph - N/A   Clear
6:35 AM 45.9 °F - 42.3 °F 87% 30.19 in 10.0 mi Calm Calm - N/A   Clear
6:55 AM 45.9 °F - 43.0 °F 90% 30.19 in 10.0 mi Calm Calm - N/A   Clear
7:15 AM 47.3 °F - 43.0 °F 85% 30.21 in 10.0 mi Calm Calm - N/A   Clear
7:35 AM 47.8 °F - 42.4 °F 82% 30.23 in 10.0 mi East 3.5 mph - N/A   Clear
7:55 AM 48.7 °F - 43.2 °F 81% 30.23 in 10.0 mi East 4.6 mph - N/A   Clear
8:15 AM 49.6 °F - 43.0 °F 78% 30.23 in 10.0 mi East 6.9 mph - N/A   Clear
8:35 AM 50.2 °F - 43.5 °F 78% 30.22 in 10.0 mi ENE 11.5 mph - N/A   Scattered Clouds
8:55 AM 50.2 °F - 43.0 °F 76% 30.23 in 10.0 mi East 12.7 mph 17.3 mph N/A   Mostly Cloudy
9:15 AM 52.2 °F - 43.0 °F 71% 30.22 in 10.0 mi East 12.7 mph - N/A   Scattered Clouds
9:35 AM 53.2 °F - 42.8 °F 68% 30.22 in 10.0 mi East 16.1 mph 20.7 mph N/A   Clear
9:55 AM 54.5 °F - 41.5 °F 62% 30.22 in 10.0 mi East 17.3 mph - N/A   Clear
10:15 AM 55.9 °F - 41.0 °F 57% 30.22 in 10.0 mi East 17.3 mph 23.0 mph N/A   Clear
10:35 AM 58.1 °F - 40.6 °F 52% 30.21 in 10.0 mi East 18.4 mph 24.2 mph N/A   Clear
10:55 AM 57.6 °F - 40.1 °F 52% 30.21 in 10.0 mi East 20.7 mph 26.5 mph N/A   Clear
11:15 AM 60.3 °F - 40.3 °F 48% 30.21 in 10.0 mi East 23.0 mph 28.8 mph N/A   Clear
11:35 AM 61.3 °F - 39.6 °F 45% 30.21 in 10.0 mi East 23.0 mph 26.5 mph N/A   Clear
11:55 AM 62.1 °F - 38.5 °F 42% 30.21 in 10.0 mi East 21.9 mph 28.8 mph N/A   Clear
12:15 PM 62.8 °F - 38.5 °F 41% 30.20 in 10.0 mi ESE 24.2 mph 27.6 mph N/A   Clear
12:35 PM 63.7 °F - 36.9 °F 37% 30.20 in 10.0 mi ESE 21.9 mph 29.9 mph N/A   Clear
12:55 PM 64.0 °F - 37.6 °F 38% 30.20 in 10.0 mi ESE 18.4 mph 29.9 mph N/A   Clear
1:15 PM 64.6 °F - 38.5 °F 38% 30.20 in 10.0 mi ESE 19.6 mph 27.6 mph N/A   Clear
1:35 PM 65.3 °F - 38.3 °F 37% 30.20 in 10.0 mi ESE 20.7 mph 26.5 mph N/A   Clear
1:55 PM 66.4 °F - 39.0 °F 37% 30.19 in 10.0 mi East 20.7 mph 25.3 mph N/A   Clear
2:15 PM 67.5 °F - 39.7 °F 36% 30.19 in 10.0 mi East 19.6 mph 27.6 mph N/A   Clear
2:35 PM 68.9 °F - 38.8 °F 33% 30.19 in 10.0 mi ESE 18.4 mph 27.6 mph N/A   Clear
2:55 PM 68.0 °F - 37.9 °F 33% 30.19 in 10.0 mi ESE 19.6 mph 26.5 mph N/A   Clear
3:15 PM 69.1 °F - 39.0 °F 33% 30.19 in 10.0 mi SE 20.7 mph 26.5 mph N/A   Clear
3:35 PM 69.4 °F - 38.5 °F 32% 30.19 in 10.0 mi ESE 17.3 mph 26.5 mph N/A   Clear
3:55 PM 69.4 °F - 38.5 °F 32% 30.17 in 10.0 mi ESE 21.9 mph 25.3 mph N/A   Clear
4:15 PM 70.0 °F - 39.2 °F 33% 30.16 in 10.0 mi ESE 21.9 mph 28.8 mph N/A   Clear
4:35 PM 69.8 °F - 38.7 °F 32% 30.15 in 10.0 mi ESE 24.2 mph 28.8 mph N/A   Clear
4:55 PM 70.2 °F - 39.0 °F 32% 30.14 in 10.0 mi SE 18.4 mph 33.4 mph N/A   Clear
5:15 PM 70.2 °F - 39.4 °F 33% 30.14 in 10.0 mi SE 18.4 mph 28.8 mph N/A   Clear
5:35 PM 69.6 °F - 40.6 °F 35% 30.15 in 10.0 mi SE 18.4 mph 33.4 mph N/A   Clear
5:55 PM 69.8 °F - 41.2 °F 35% 30.15 in 10.0 mi SE 25.3 mph 32.2 mph N/A   Clear
6:15 PM 68.9 °F - 41.5 °F 37% 30.15 in 10.0 mi SE 20.7 mph 28.8 mph N/A   Clear
6:35 PM 68.4 °F - 43.0 °F 40% 30.15 in 10.0 mi SE 19.6 mph 28.8 mph N/A   Clear
6:55 PM 67.8 °F - 43.0 °F 41% 30.14 in 10.0 mi SE 19.6 mph 27.6 mph N/A   Clear
7:15 PM 67.1 °F - 43.2 °F 42% 30.14 in 10.0 mi SE 18.4 mph 28.8 mph N/A   Clear
7:35 PM 66.4 °F - 43.9 °F 44% 30.14 in 10.0 mi SE 21.9 mph 28.8 mph N/A   Clear
7:55 PM 66.2 °F - 44.4 °F 45% 30.14 in 10.0 mi SE 20.7 mph 27.6 mph N/A   Clear
8:15 PM 65.1 °F - 44.4 °F 47% 30.14 in 10.0 mi SE 24.2 mph - N/A   Clear
8:35 PM 64.4 °F - 44.4 °F 48% 30.14 in 10.0 mi SE 16.1 mph 23.0 mph N/A   Clear
8:55 PM 63.1 °F - 44.8 °F 51% 30.15 in 10.0 mi SE 12.7 mph 18.4 mph N/A   Clear
9:15 PM 62.1 °F - 44.8 °F 53% 30.15 in 10.0 mi SE 13.8 mph - N/A   Clear
9:35 PM 61.2 °F - 45.0 °F 55% 30.15 in 10.0 mi SE 13.8 mph - N/A   Clear
9:55 PM 60.3 °F - 45.1 °F 57% 30.16 in 10.0 mi SE 15.0 mph 18.4 mph N/A   Clear
10:15 PM 59.9 °F - 45.5 °F 59% 30.16 in 10.0 mi SE 13.8 mph - N/A   Clear
10:35 PM 59.0 °F - 45.5 °F 61% 30.17 in 10.0 mi SE 10.4 mph 16.1 mph N/A   Clear
10:55 PM 58.3 °F - 45.7 °F 63% 30.17 in 10.0 mi SE 11.5 mph - N/A   Clear
11:15 PM 57.6 °F - 45.7 °F 65% 30.17 in 10.0 mi SE 11.5 mph - N/A   Clear
11:35 PM 56.8 °F - 45.7 °F 66% 30.17 in 10.0 mi SE 9.2 mph - N/A   Clear
11:55 PM 56.1 °F - 45.7 °F 68% 30.16 in 10.0 mi SE 11.5 mph - N/A   Clear